Sydney, Australia

9:04 PM AEDT on February 22, 2018 (GMT +1100)
Kingsford Smith International

Weather History for YSSY - July, 2013

Change the Weather History Date:

Saturday, July 27, 2013

  Actual Average Record
Temperature  
Mean Temperature 55 °F -  
Max Temperature 66 °F 65 °F 69 °F (2007)
Min Temperature 44 °F 46 °F 42 °F (2000)
Degree Days  
Heating Degree Days 10    
Growing Degree Days 5 (Base 50)    
Moisture  
Dew Point 43 °F    
Average Humidity 61    
Maximum Humidity 88    
Minimum Humidity 31    
Precipitation  
Precipitation 0.00 in 0.11 in - ()
Sea Level Pressure  
Sea Level Pressure 30.38 in    
Wind  
Wind Speed 8 mph ()    
Max Wind Speed 13 mph    
Max Gust Speed -    
Visibility 8.7 miles    
Events      
Averages and records for this station are not official NWS values.
T = Trace of Precipitation, MM = Missing Value Source: Averaged Metar Reports

Daily Weather History Graph

Daily Weather History Graph

Search for Another Location

Airport or City:

Trip Planner

Search our weather history database for the weather conditions in past years. The results will help you decide how hot, cold, wet, or windy it might be!

Date:

Astronomy

Jul. 27, 2013 Rise Set
Actual Time 6:51 AM AEST 5:12 PM AEST
Civil Twilight 6:25 AM AEST 5:38 PM AEST
Nautical Twilight 5:54 AM AEST 6:09 PM AEST
Astronomical Twilight 5:25 AM AEST 6:38 PM AEST
Moon 10:16 PM AEST (7/27) 9:24 AM AEST (7/27)
Length of Visible Light 11h 13m
Length of Day
10h 20m
Waning Gibbous, 76% of the Moon is Illuminated
Jul 27
Waning Gibbous
Jul 30
Last Quarter
Aug 7
New
Aug 14
First Quarter
Aug 21
Full

Hourly Weather History & Observations

Time (AEST) Temp. Windchill Dew Point Humidity Pressure Visibility Wind Dir Wind Speed Gust Speed Precip Events Conditions
12:00 AM 51 °F - 42 °F 61% 30.35 in 12 mi NW 8.1 mph - -   Haze
12:00 AM 50.0 °F - 41.0 °F 71% 30.33 in - NW 8.1 mph - N/A   Clear
12:30 AM 48.2 °F - 41.0 °F 76% 30.33 in - NW 8.1 mph - N/A   Clear
1:00 AM 48 °F - 40 °F 64% 30.35 in - NW 10.4 mph - -  
1:00 AM 48.2 °F - 39.2 °F 71% 30.33 in - NW 10.4 mph - N/A   Clear
1:30 AM 48.2 °F - 41.0 °F 76% 30.33 in - NNW 8.1 mph - N/A   Clear
2:00 AM 48.2 °F - 41.0 °F 76% 30.33 in - NNW 8.1 mph - N/A   Clear
3:00 AM 47 °F - 39 °F 65% 30.37 in 16 mi NNW 8.1 mph - -   Partly Cloudy
3:00 AM 46.4 °F 42.4 °F 39.2 °F 76% 30.36 in - NNW 8.1 mph - N/A   Clear
3:30 AM 46.4 °F 42.9 °F 39.2 °F 76% 30.36 in - NW 6.9 mph - N/A   Clear
4:00 AM 47 °F - 38 °F 62% 30.38 in - NNW 9.2 mph - -  
4:00 AM 46.4 °F 41.9 °F 37.4 °F 71% 30.36 in - NNW 9.2 mph - N/A   Clear
4:30 AM 46.4 °F 42.4 °F 37.4 °F 71% 30.36 in - NNW 8.1 mph - N/A   Clear
5:00 AM 44.6 °F 39.7 °F 37.4 °F 76% 30.36 in - North 9.2 mph - N/A   Clear
5:30 AM 46.4 °F 42.4 °F 37.4 °F 71% 30.39 in - NNW 8.1 mph - N/A   Clear
6:00 AM 46 °F - 36 °F 60% 30.41 in 16 mi NNW 8.1 mph - -   Partly Cloudy
6:00 AM 46.4 °F 42.4 °F 37.4 °F 71% 30.39 in 6.2 mi NNW 8.1 mph - N/A   Partly Cloudy
6:30 AM 44.6 °F 40.2 °F 37.4 °F 76% 30.39 in 6.2 mi NW 8.1 mph - N/A   Partly Cloudy
7:00 AM 46 °F - 36 °F 59% 30.42 in - NNW 9.2 mph - -  
7:00 AM 46.4 °F 41.9 °F 35.6 °F 66% 30.42 in 6.2 mi NNW 9.2 mph - N/A   Partly Cloudy
7:30 AM 48.2 °F - 35.6 °F 62% 30.42 in 6.2 mi NNW 9.2 mph - N/A   Partly Cloudy
8:00 AM 48.2 °F - 37.4 °F 66% 30.42 in 6.2 mi NW 9.2 mph - N/A   Partly Cloudy
8:30 AM 51.8 °F - 37.4 °F 58% 30.42 in 6.2 mi NW 10.4 mph - N/A   Partly Cloudy
9:00 AM 53 °F - 36 °F 42% 30.44 in 12 mi NW 10.4 mph - -   Haze
9:00 AM 51.8 °F - 37.4 °F 58% 30.42 in 6.2 mi NW 10.4 mph - N/A   Partly Cloudy
9:30 AM 55.4 °F - 35.6 °F 47% 30.45 in 6.2 mi NW 11.5 mph - N/A   Partly Cloudy
10:00 AM 57 °F - 36 °F 33% 30.45 in - WNW 10.4 mph - -  
10:00 AM 57.2 °F - 35.6 °F 44% 30.45 in 6.2 mi WNW 10.4 mph - N/A   Partly Cloudy
10:30 AM 59.0 °F - 35.6 °F 42% 30.42 in 6.2 mi NW 9.2 mph - N/A   Partly Cloudy
11:00 AM 60.8 °F - 37.4 °F 42% 30.42 in 6.2 mi NW 9.2 mph - N/A   Partly Cloudy
11:30 AM 62.6 °F - 39.2 °F 42% 30.42 in - WNW 9.2 mph - N/A   Clear
12:00 PM 64 °F - 41 °F 31% 30.41 in 14 mi WNW 6.9 mph - -   Haze
12:00 PM 64.4 °F - 41.0 °F 42% 30.39 in - WNW 6.9 mph - N/A   Clear
12:30 PM 64.4 °F - 44.6 °F 49% 30.39 in 6.2 mi WNW 5.8 mph - N/A   Partly Cloudy
1:00 PM 65 °F - 43 °F 34% 30.39 in - WSW 5.8 mph - -  
1:00 PM 66.2 °F - 42.8 °F 43% 30.39 in 6.2 mi WSW 5.8 mph - N/A   Partly Cloudy
1:30 PM 66.2 °F - 42.8 °F 43% 30.36 in 6.2 mi WNW 5.8 mph - N/A   Partly Cloudy
2:00 PM 66.2 °F - 42.8 °F 43% 30.36 in 6.2 mi East 5.8 mph - N/A   Partly Cloudy
2:30 PM 64.4 °F - 44.6 °F 49% 30.36 in 6.2 mi SE 8.1 mph - N/A   Partly Cloudy
3:00 PM 66 °F - 44 °F 34% 30.36 in 16 mi ENE 11.5 mph - -   Partly Cloudy
3:00 PM 66.2 °F - 44.6 °F 46% 30.36 in 6.2 mi ENE 11.5 mph - N/A   Partly Cloudy
3:30 PM 64.4 °F - 46.4 °F 52% 30.33 in 6.2 mi ENE 12.7 mph - N/A   Partly Cloudy
4:00 PM 64 °F - 47 °F 42% 30.36 in - ENE 12.7 mph - -  
4:00 PM 64.4 °F - 46.4 °F 52% 30.36 in 6.2 mi ENE 12.7 mph - N/A   Partly Cloudy
4:30 PM 62.6 °F - 46.4 °F 55% 30.36 in 6.2 mi ENE 12.7 mph - N/A   Partly Cloudy
5:00 PM 60.8 °F - 48.2 °F 63% 30.36 in 6.2 mi ENE 10.4 mph - N/A   Partly Cloudy
5:30 PM 59.0 °F - 48.2 °F 67% 30.36 in - ENE 9.2 mph - N/A   Clear
6:00 PM 59 °F - 49 °F 60% 30.38 in 19 mi NE 9.2 mph - -   Partly Cloudy
6:00 PM 59.0 °F - 48.2 °F 67% 30.36 in - NE 9.2 mph - N/A   Clear
6:30 PM 57.2 °F - 50.0 °F 77% 30.36 in - NE 9.2 mph - N/A   Clear
7:00 PM 59 °F - 49 °F 60% 30.39 in - NE 9.2 mph - -  
7:00 PM 59.0 °F - 48.2 °F 67% 30.39 in - NE 9.2 mph - N/A   Clear
7:30 PM 57.2 °F - 50.0 °F 77% 30.39 in - NE 10.4 mph - N/A   Clear
8:00 PM 57.2 °F - 50.0 °F 77% 30.39 in - NNE 8.1 mph - N/A   Clear
8:30 PM 55.4 °F - 50.0 °F 82% 30.39 in - NE 8.1 mph - N/A   Clear
9:00 PM 58 °F - 51 °F 69% 30.40 in 16 mi NNE 6.9 mph - -   Partly Cloudy
9:00 PM 59.0 °F - 50.0 °F 72% 30.39 in - NNE 6.9 mph - N/A   Clear
9:30 PM 57.2 °F - 50.0 °F 77% 30.39 in - NNE 8.1 mph - N/A   Clear
10:00 PM 56 °F - 50 °F 75% 30.40 in - NNE 6.9 mph - -  
10:00 PM 57.2 °F - 50.0 °F 77% 30.39 in - NNE 6.9 mph - N/A   Clear
10:30 PM 53.6 °F - 50.0 °F 88% 30.39 in - NNE 5.8 mph - N/A   Clear
11:00 PM 55.4 °F - 50.0 °F 82% 30.39 in - North 5.8 mph - N/A   Clear
11:30 PM 53.6 °F - 48.2 °F 82% 30.39 in - WNW 6.9 mph - N/A   Clear